| time (UTC) | temp C | wind direction | speed KPH | gust KPH | rain 1hr cm | rain 24hr cm | rain mn cm | humidity % | barometer mb |
| 20260903222516 | 24 | 137 | 4.8 | 12.9 | 0.03 | 0.13 | 0.13 | 87 | 1011.9 |
| 20260903222036 | 24 | 140 | 4.8 | 9.7 | 0.03 | 0.13 | 0.13 | 87 | 1012.0 |
| 20260903221536 | 23 | 122 | 4.8 | 9.7 | 0.03 | 0.13 | 0.13 | 88 | 1012.1 |
| 20260903221056 | 23 | 108 | 3.2 | 12.9 | 0.03 | 0.13 | 0.13 | 88 | 1012.1 |
| 20260903220517 | 23 | 100 | 8.0 | 12.9 | 0.03 | 0.13 | 0.13 | 88 | 1012.0 |
| 20260903220036 | 23 | 110 | 6.4 | 12.9 | 0.05 | 0.13 | 0.13 | 88 | 1012.1 |
| 20260903215516 | 23 | 117 | 6.4 | 11.3 | 0.05 | 0.13 | 0.13 | 88 | 1012.0 |
| 20260903215016 | 23 | 124 | 3.2 | 12.9 | 0.05 | 0.13 | 0.13 | 90 | 1012.0 |
| 20260903214516 | 23 | 136 | 6.4 | 12.9 | 0.05 | 0.13 | 0.13 | 90 | 1012.0 |
| 20260903214036 | 23 | 141 | 6.4 | 12.9 | 0.03 | 0.10 | 0.10 | 90 | 1011.8 |
| 20260903213516 | 23 | 142 | 4.8 | 11.3 | 0.03 | 0.10 | 0.10 | 91 | 1011.9 |
| 20260903213017 | 23 | 121 | 4.8 | 11.3 | 0.03 | 0.10 | 0.10 | 91 | 1012.1 |
| 20260903212516 | 23 | 143 | 3.2 | 8.0 | 0.03 | 0.10 | 0.10 | 91 | 1012.3 |
| 20260903212017 | 23 | 158 | 3.2 | 8.0 | 0.03 | 0.10 | 0.10 | 92 | 1012.2 |
| 20260903211536 | 22 | 147 | 0.0 | 6.4 | 0.03 | 0.10 | 0.10 | 92 | 1012.4 |
| 20260903211036 | 22 | 148 | 1.6 | 6.4 | 0.05 | 0.10 | 0.10 | 92 | 1012.2 |
| 20260903210516 | 22 | 137 | 1.6 | 11.3 | 0.05 | 0.10 | 0.10 | 91 | 1012.1 |
| 20260903210036 | 22 | 134 | 6.4 | 12.9 | 0.03 | 0.08 | 0.08 | 92 | 1012.0 |
| 20260903205537 | 22 | 133 | 6.4 | 12.9 | 0.03 | 0.08 | 0.08 | 91 | 1012.0 |
| 20260903205016 | 22 | 152 | 6.4 | 12.9 | 0.03 | 0.08 | 0.08 | 91 | 1012.2 |
| 20260903204517 | 22 | 159 | 6.4 | 14.5 | 0.03 | 0.08 | 0.08 | 90 | 1012.5 |
| 20260903204016 | 22 | 175 | 9.7 | 16.1 | 0.03 | 0.08 | 0.08 | 89 | 1012.9 |
| 20260903203516 | 22 | 168 | 6.4 | 16.1 | 0.03 | 0.08 | 0.08 | 88 | 1012.6 |
| 20260903203017 | 23 | 168 | 1.6 | 6.4 | 0.03 | 0.08 | 0.08 | 87 | 1012.7 |
| 20260903202516 | 23 | 227 | 3.2 | 8.0 | 0.03 | 0.08 | 0.08 | 87 | 1013.0 |
| 20260903202036 | 23 | 271 | 3.2 | 11.3 | 0.05 | 0.08 | 0.08 | 85 | 1013.2 |
| 20260903201536 | 23 | 304 | 4.8 | 11.3 | 0.05 | 0.08 | 0.08 | 85 | 1013.1 |
| 20260903201016 | 23 | 5 | 4.8 | 11.3 | 0.03 | 0.05 | 0.05 | 84 | 1012.8 |
| 20260903200536 | 23 | 10 | 6.4 | 11.3 | 0.03 | 0.05 | 0.05 | 84 | 1012.7 |
| 20260903200017 | 23 | 1 | 4.8 | 14.5 | 0.03 | 0.05 | 0.05 | 84 | 1012.5 |
| 20260903195516 | 23 | 13 | 6.4 | 14.5 | 0.03 | 0.05 | 0.05 | 85 | 1012.3 |
| 20260903195016 | 23 | 5 | 9.7 | 16.1 | 0.03 | 0.05 | 0.05 | 86 | 1012.2 |
| 20260903194516 | 23 | 359 | 9.7 | 17.7 | 0.05 | 0.05 | 0.05 | 87 | 1012.0 |
| 20260903194016 | 23 | 8 | 11.3 | 17.7 | 0.05 | 0.05 | 0.05 | 88 | 1011.9 |
| 20260903193516 | 22 | 18 | 11.3 | 16.1 | 0.05 | 0.05 | 0.05 | 88 | 1011.8 |
| 20260903193036 | 22 | 0 | 6.4 | 11.3 | 0.05 | 0.05 | 0.05 | 89 | 1012.1 |
| 20260903192516 | 22 | 23 | 3.2 | 14.5 | 0.05 | 0.05 | 0.05 | 88 | 1011.9 |
| 20260903192016 | 22 | 47 | 6.4 | 16.1 | 0.03 | 0.03 | 0.03 | 88 | 1011.7 |
| 20260903191516 | 22 | 38 | 8.0 | 16.1 | 0.03 | 0.03 | 0.03 | 88 | 1012.2 |
| 20260903191015 | 22 | 11 | 6.4 | 19.3 | 0.03 | 0.03 | 0.03 | 88 | 1012.7 |
| 20260903190516 | 22 | 11 | 11.3 | 19.3 | 0.03 | 0.03 | 0.03 | 87 | 1013.0 |
| 20260903190016 | 23 | 353 | 8.0 | 14.5 | 0.03 | 0.03 | 0.03 | 88 | 1013.1 |
| 20260903185536 | 23 | 306 | 8.0 | 14.5 | 0.03 | 0.03 | 0.03 | 88 | 1013.9 |
| 20260903185015 | 23 | 303 | 8.0 | 16.1 | 0.03 | 0.03 | 0.03 | 87 | 1014.1 |
| 20260903184516 | 23 | 318 | 8.0 | 16.1 | 0.00 | 0.00 | 0.00 | 87 | 1014.0 |
| 20260903184016 | 23 | 321 | 9.7 | 19.3 | 0.00 | 0.00 | 0.00 | 86 | 1014.0 |
| 20260903183515 | 23 | 329 | 11.3 | 19.3 | 0.00 | 0.00 | 0.00 | 85 | 1014.1 |
| 20260903183017 | 24 | 303 | 9.7 | 19.3 | 0.00 | 0.00 | 0.00 | 83 | 1014.4 |
| 20260903182517 | 24 | 304 | 12.9 | 22.5 | 0.00 | 0.00 | 0.00 | 82 | 1014.5 |
| 20260903182017 | 25 | 298 | 12.9 | 22.5 | 0.00 | 0.00 | 0.00 | 82 | 1014.5 |
| 20260903181536 | 25 | 294 | 11.3 | 20.9 | 0.00 | 0.00 | 0.00 | 82 | 1014.4 |
| 20260903181015 | 26 | 298 | 14.5 | 30.6 | 0.00 | 0.00 | 0.00 | 79 | 1014.0 |
| 20260903180515 | 26 | 301 | 16.1 | 37.0 | 0.00 | 0.00 | 0.00 | 77 | 1014.2 |
| 20260903180017 | 26 | 308 | 22.5 | 37.0 | 0.00 | 0.00 | 0.00 | 76 | 1014.2 |
| 20260903175515 | 27 | 301 | 19.3 | 35.4 | 0.00 | 0.00 | 0.00 | 74 | 1014.2 |
| 20260903175015 | 27 | 307 | 16.1 | 30.6 | 0.00 | 0.00 | 0.00 | 75 | 1013.9 |
| 20260903174517 | 27 | 307 | 11.3 | 24.1 | 0.00 | 0.00 | 0.00 | 75 | 1013.4 |
| 20260903174015 | 27 | 298 | 14.5 | 27.4 | 0.00 | 0.00 | 0.00 | 74 | 1013.3 |
| 20260903173515 | 27 | 306 | 14.5 | 27.4 | 0.00 | 0.00 | 0.00 | 74 | 1013.2 |
| 20260903173017 | 28 | 308 | 12.9 | 22.5 | 0.00 | 0.00 | 0.00 | 72 | 1013.0 |
| 20260903172557 | 28 | 302 | 9.7 | 20.9 | 0.00 | 0.00 | 0.00 | 72 | 1012.7 |
| 20260903172035 | 28 | 299 | 11.3 | 20.9 | 0.00 | 0.00 | 0.00 | 72 | 1012.6 |
| 20260903171516 | 28 | 302 | 12.9 | 19.3 | 0.00 | 0.00 | 0.00 | 71 | 1012.6 |
| 20260903171015 | 28 | 300 | 11.3 | 19.3 | 0.00 | 0.00 | 0.00 | 71 | 1012.3 |
| 20260903170536 | 28 | 284 | 9.7 | 19.3 | 0.00 | 0.00 | 0.00 | 71 | 1012.1 |
| 20260903170035 | 28 | 270 | 12.9 | 20.9 | 0.00 | 0.00 | 0.00 | 70 | 1011.9 |
| 20260903165515 | 28 | 246 | 14.5 | 20.9 | 0.00 | 0.00 | 0.00 | 70 | 1011.7 |
| 20260903165015 | 28 | 256 | 12.9 | 20.9 | 0.00 | 0.00 | 0.00 | 70 | 1011.7 |
| 20260903164536 | 28 | 265 | 12.9 | 22.5 | 0.00 | 0.00 | 0.00 | 70 | 1011.6 |
| 20260903164036 | 28 | 257 | 14.5 | 25.7 | 0.00 | 0.00 | 0.00 | 69 | 1011.6 |
| 20260903163516 | 29 | 248 | 14.5 | 25.7 | 0.00 | 0.00 | 0.00 | 68 | 1011.6 |
| 20260903163015 | 29 | 267 | 12.9 | 24.1 | 0.00 | 0.00 | 0.00 | 68 | 1011.5 |
| 20260903162515 | 29 | 300 | 12.9 | 27.4 | 0.00 | 0.00 | 0.00 | 67 | 1011.5 |
| 20260903162015 | 29 | 270 | 17.7 | 27.4 | 0.00 | 0.00 | 0.00 | 67 | 1011.4 |
| 20260903161515 | 29 | 261 | 12.9 | 25.7 | 0.00 | 0.00 | 0.00 | 68 | 1011.4 |
| 20260903161016 | 29 | 262 | 16.1 | 25.7 | 0.00 | 0.00 | 0.00 | 69 | 1011.6 |
| 20260903160515 | 29 | 251 | 14.5 | 25.7 | 0.00 | 0.00 | 0.00 | 72 | 1011.6 |
| 20260903160016 | 29 | 245 | 11.3 | 20.9 | 0.00 | 0.00 | 0.00 | 74 | 1011.7 |
| 20260903155516 | 28 | 246 | 11.3 | 19.3 | 0.00 | 0.00 | 0.00 | 74 | 1011.8 |
| 20260903155015 | 28 | 243 | 11.3 | 19.3 | 0.00 | 0.00 | 0.00 | 75 | 1011.9 |
| 20260903154515 | 28 | 250 | 9.7 | 16.1 | 0.00 | 0.00 | 0.00 | 76 | 1012.0 |
| 20260903154015 | 28 | 256 | 9.7 | 16.1 | 0.00 | 0.00 | 0.00 | 76 | 1012.0 |
| 20260903153516 | 28 | 233 | 6.4 | 17.7 | 0.00 | 0.00 | 0.00 | 77 | 1012.1 |
| 20260903153015 | 28 | 225 | 9.7 | 17.7 | 0.00 | 0.00 | 0.00 | 78 | 1012.2 |
| 20260903152515 | 28 | 214 | 9.7 | 17.7 | 0.00 | 0.00 | 0.00 | 79 | 1012.4 |
| 20260903152015 | 27 | 243 | 8.0 | 16.1 | 0.00 | 0.00 | 0.00 | 79 | 1012.4 |
| 20260903151515 | 27 | 249 | 9.7 | 16.1 | 0.00 | 0.00 | 0.00 | 79 | 1012.5 |
| 20260903151015 | 27 | 224 | 9.7 | 17.7 | 0.00 | 0.00 | 0.00 | 80 | 1012.6 |
| 20260903150515 | 27 | 228 | 9.7 | 17.7 | 0.00 | 0.00 | 0.00 | 80 | 1012.5 |
| 20260903150015 | 27 | 244 | 6.4 | 14.5 | 0.00 | 0.00 | 0.00 | 80 | 1012.4 |
| 20260903145515 | 27 | 215 | 4.8 | 11.3 | 0.00 | 0.00 | 0.00 | 81 | 1012.5 |
| 20260903145015 | 27 | 242 | 4.8 | 12.9 | 0.00 | 0.00 | 0.00 | 81 | 1012.4 |
| 20260903144515 | 27 | 247 | 6.4 | 12.9 | 0.00 | 0.00 | 0.00 | 80 | 1012.4 |
| 20260903144035 | 27 | 216 | 4.8 | 12.9 | 0.00 | 0.00 | 0.00 | 80 | 1012.3 |
| 20260903143515 | 27 | 216 | 6.4 | 12.9 | 0.00 | 0.00 | 0.00 | 81 | 1012.2 |
| 20260903143015 | 27 | 224 | 4.8 | 16.1 | 0.00 | 0.00 | 0.00 | 81 | 1012.2 |
| 20260903142515 | 27 | 234 | 8.0 | 16.1 | 0.00 | 0.00 | 0.00 | 82 | 1012.2 |
| 20260903142016 | 27 | 227 | 9.7 | 14.5 | 0.00 | 0.00 | 0.00 | 80 | 1012.1 |
| 20260903141516 | 27 | 218 | 6.4 | 12.9 | 0.00 | 0.00 | 0.00 | 81 | 1012.0 |
| 20260903141035 | 27 | 211 | 4.8 | 9.7 | 0.00 | 0.00 | 0.00 | 83 | 1011.9 |
| 20260903140515 | 26 | 217 | 6.4 | 9.7 | 0.00 | 0.00 | 0.00 | 83 | 1012.0 |
| 20260903140016 | 26 | 197 | 4.8 | 9.7 | 0.00 | 0.00 | 0.00 | 84 | 1012.1 |
| 20260903135515 | 26 | 198 | 4.8 | 9.7 | 0.00 | 0.00 | 0.00 | 85 | 1012.1 |
| 20260903135016 | 26 | 212 | 4.8 | 9.7 | 0.00 | 0.00 | 0.00 | 86 | 1012.2 |
| 20260903134515 | 26 | 183 | 1.6 | 6.4 | 0.00 | 0.00 | 0.00 | 87 | 1012.1 |
| 20260903134016 | 25 | 135 | 1.6 | 4.8 | 0.00 | 0.00 | 0.00 | 89 | 1012.1 |
| 20260903133515 | 25 | 141 | 0.0 | 3.2 | 0.00 | 0.00 | 0.00 | 90 | 1012.2 |
| 20260903133015 | 25 | 136 | 0.0 | 3.2 | 0.00 | 0.00 | 0.00 | 92 | 1012.2 |
| 20260903132515 | 24 | 146 | 0.0 | 8.0 | 0.00 | 0.00 | 0.00 | 93 | 1012.1 |
| 20260903132015 | 23 | 190 | 0.0 | 11.3 | 0.00 | 0.00 | 0.00 | 93 | 1012.1 |
| 20260903131515 | 23 | 183 | 3.2 | 11.3 | 0.00 | 0.00 | 0.00 | 94 | 1012.1 |
| 20260903131015 | 23 | 208 | 1.6 | 11.3 | 0.00 | 0.00 | 0.00 | 95 | 1012.2 |
| 20260903130515 | 23 | 243 | 3.2 | 11.3 | 0.00 | 0.00 | 0.00 | 95 | 1012.1 |
| 20260903130015 | 23 | 245 | 1.6 | 8.0 | 0.00 | 0.00 | 0.00 | 95 | 1012.1 |
| 20260903125515 | 23 | 264 | 0.0 | 3.2 | 0.00 | 0.00 | 0.00 | 95 | 1012.2 |
| 20260903125016 | 22 | 279 | 0.0 | 3.2 | 0.00 | 0.00 | 0.00 | 96 | 1012.2 |
| 20260903124515 | 22 | 284 | 0.0 | 3.2 | 0.00 | 0.00 | 0.00 | 95 | 1012.1 |
| 20260903124016 | 22 | 278 | 0.0 | 4.8 | 0.00 | 0.00 | 0.00 | 95 | 1012.1 |
| 20260903123517 | 22 | 282 | 1.6 | 4.8 | 0.00 | 0.00 | 0.00 | 95 | 1012.2 |
| 20260903123017 | 22 | 0.0 | 4.8 | 0.00 | 0.00 | 0.00 | 96 | 1012.2 | |
| 20260903122518 | 22 | 212 | 0.0 | 4.8 | 0.00 | 0.00 | 0.00 | 96 | 1012.2 |
| 20260903122017 | 22 | 198 | 0.0 | 4.8 | 0.00 | 0.00 | 0.00 | 96 | 1012.3 |
| 20260903121517 | 22 | 185 | 0.0 | 4.8 | 0.00 | 0.00 | 0.00 | 96 | 1012.4 |
| 20260903121017 | 22 | 167 | 0.0 | 4.8 | 0.00 | 0.00 | 0.00 | 96 | 1012.6 |
| 20260903120517 | 22 | 123 | 0.0 | 3.2 | 0.00 | 0.00 | 0.00 | 95 | 1012.6 |
| 20260903120017 | 22 | 139 | 0.0 | 3.2 | 0.00 | 0.00 | 0.00 | 96 | 1012.7 |
| 20260903115537 | 22 | 92 | 0.0 | 4.8 | 0.00 | 0.00 | 0.00 | 96 | 1012.6 |
| 20260903115017 | 22 | 79 | 1.6 | 4.8 | 0.00 | 0.00 | 0.00 | 96 | 1012.5 |
| 20260903114518 | 21 | 102 | 0.0 | 3.2 | 0.00 | 0.03 | 0.00 | 95 | 1012.6 |
| 20260903114018 | 21 | 91 | 0.0 | 3.2 | 0.00 | 0.03 | 0.00 | 95 | 1012.6 |
| 20260903113517 | 21 | 91 | 0.0 | 4.8 | 0.00 | 0.03 | 0.00 | 95 | 1012.5 |
| 20260903113017 | 21 | 96 | 1.6 | 4.8 | 0.00 | 0.03 | 0.00 | 95 | 1012.4 |
| 20260903112517 | 21 | 110 | 1.6 | 4.8 | 0.00 | 0.03 | 0.00 | 95 | 1012.4 |
| 20260903112017 | 21 | 127 | 0.0 | 3.2 | 0.00 | 0.03 | 0.00 | 95 | 1012.4 |
| 20260903111517 | 22 | 0.0 | 1.6 | 0.00 | 0.03 | 0.00 | 95 | 1012.2 | |
| 20260903111017 | 22 | 127 | 0.0 | 3.2 | 0.00 | 0.03 | 0.00 | 95 | 1012.1 |
| 20260903110517 | 22 | 127 | 1.6 | 4.8 | 0.00 | 0.03 | 0.00 | 95 | 1012.2 |
| 20260903110018 | 21 | 130 | 1.6 | 6.4 | 0.00 | 0.03 | 0.00 | 95 | 1012.2 |
| 20260903105537 | 21 | 125 | 1.6 | 6.4 | 0.00 | 0.03 | 0.00 | 95 | 1012.2 |
| 20260903105017 | 21 | 110 | 0.0 | 1.6 | 0.00 | 0.03 | 0.00 | 95 | 1012.2 |
| 20260903104517 | 21 | 0.0 | 0.0 | 0.00 | 0.03 | 0.00 | 95 | 1012.1 | |
| 20260903104100 | 21 | 0.0 | 0.0 | 0.00 | 0.03 | 0.00 | 95 | 1012.2 | |
| 20260903103517 | 21 | 0.0 | 0.0 | 0.00 | 0.03 | 0.00 | 95 | 1012.3 | |
| 20260903103017 | 21 | 0.0 | 0.0 | 0.00 | 0.03 | 0.00 | 95 | 1012.3 | |
| 20260903102518 | 21 | 0.0 | 0.0 | 0.00 | 0.03 | 0.00 | 95 | 1012.3 | |
| 20260903102018 | 21 | 0.0 | 0.0 | 0.00 | 0.03 | 0.00 | 95 | 1012.3 | |
| 20260903101538 | 21 | 0.0 | 0.0 | 0.00 | 0.03 | 0.00 | 95 | 1012.3 | |
| 20260903101017 | 21 | 0.0 | 0.0 | 0.00 | 0.03 | 0.00 | 95 | 1012.2 | |
| 20260903100517 | 21 | 0.0 | 0.0 | 0.00 | 0.03 | 0.00 | 95 | 1012.2 | |
| 20260903100016 | 21 | 0.0 | 0.0 | 0.00 | 0.03 | 0.00 | 95 | 1012.3 | |
| 20260903095517 | 21 | 0.0 | 0.0 | 0.00 | 0.03 | 0.00 | 95 | 1012.2 | |
| 20260903095017 | 21 | 0.0 | 0.0 | 0.00 | 0.03 | 0.00 | 94 | 1012.2 | |
| 20260903094516 | 21 | 0.0 | 0.0 | 0.00 | 0.03 | 0.00 | 94 | 1012.1 | |
| 20260903094016 | 21 | 0.0 | 0.0 | 0.00 | 0.03 | 0.00 | 94 | 1012.1 | |
| 20260903093517 | 21 | 0.0 | 1.6 | 0.00 | 0.03 | 0.00 | 95 | 1012.1 | |
| 20260903093017 | 21 | 100 | 0.0 | 1.6 | 0.00 | 0.03 | 0.00 | 95 | 1012.1 |
| 20260903092517 | 21 | 100 | 0.0 | 1.6 | 0.00 | 0.03 | 0.00 | 95 | 1012.0 |
| 20260903092018 | 21 | 100 | 0.0 | 1.6 | 0.00 | 0.03 | 0.00 | 95 | 1012.0 |
| 20260903091517 | 21 | 100 | 0.0 | 1.6 | 0.00 | 0.03 | 0.00 | 95 | 1012.1 |
| 20260903091018 | 21 | 100 | 0.0 | 3.2 | 0.00 | 0.03 | 0.00 | 94 | 1012.0 |
| 20260903090516 | 21 | 100 | 1.6 | 3.2 | 0.00 | 0.03 | 0.00 | 94 | 1012.1 |
| 20260903090017 | 21 | 100 | 0.0 | 4.8 | 0.00 | 0.03 | 0.00 | 94 | 1012.1 |
| 20260903085518 | 21 | 104 | 0.0 | 4.8 | 0.00 | 0.03 | 0.00 | 94 | 1012.1 |
| 20260903085017 | 21 | 121 | 0.0 | 3.2 | 0.00 | 0.03 | 0.00 | 94 | 1012.1 |
| 20260903084516 | 21 | 122 | 0.0 | 3.2 | 0.00 | 0.03 | 0.00 | 94 | 1012.0 |
| 20260903084016 | 21 | 122 | 0.0 | 3.2 | 0.00 | 0.03 | 0.00 | 94 | 1012.1 |
| 20260903083517 | 22 | 0.0 | 0.0 | 0.00 | 0.03 | 0.00 | 94 | 1012.0 | |
| 20260903083038 | 22 | 0.0 | 0.0 | 0.00 | 0.03 | 0.00 | 94 | 1012.1 | |
| 20260903082516 | 22 | 0.0 | 0.0 | 0.00 | 0.03 | 0.00 | 94 | 1012.2 | |
| 20260903082016 | 22 | 0.0 | 1.6 | 0.00 | 0.03 | 0.00 | 94 | 1012.1 | |
| 20260903081516 | 22 | 122 | 0.0 | 3.2 | 0.00 | 0.03 | 0.00 | 94 | 1012.1 |
| 20260903081016 | 22 | 121 | 1.6 | 3.2 | 0.00 | 0.03 | 0.00 | 94 | 1012.0 |
| 20260903080518 | 22 | 121 | 1.6 | 3.2 | 0.00 | 0.03 | 0.00 | 94 | 1012.1 |
| 20260903080036 | 22 | 122 | 1.6 | 3.2 | 0.00 | 0.03 | 0.00 | 94 | 1012.1 |
| 20260903075537 | 22 | 121 | 1.6 | 3.2 | 0.00 | 0.03 | 0.00 | 94 | 1012.1 |
| 20260903075016 | 22 | 122 | 0.0 | 1.6 | 0.00 | 0.03 | 0.00 | 93 | 1012.1 |
| 20260903074516 | 22 | 0.0 | 0.0 | 0.00 | 0.03 | 0.00 | 93 | 1012.0 | |
| 20260903074017 | 22 | 0.0 | 1.6 | 0.00 | 0.03 | 0.00 | 93 | 1012.0 | |
| 20260903073537 | 22 | 122 | 0.0 | 3.2 | 0.00 | 0.03 | 0.00 | 93 | 1012.0 |
| 20260903073018 | 22 | 121 | 1.6 | 3.2 | 0.00 | 0.03 | 0.00 | 93 | 1012.0 |
| 20260903072516 | 22 | 121 | 1.6 | 3.2 | 0.00 | 0.03 | 0.00 | 93 | 1012.0 |
| 20260903072016 | 22 | 122 | 0.0 | 1.6 | 0.00 | 0.03 | 0.00 | 93 | 1012.0 |
| 20260903071516 | 22 | 0.0 | 1.6 | 0.00 | 0.03 | 0.00 | 93 | 1011.9 | |
| 20260903071036 | 22 | 122 | 0.0 | 1.6 | 0.00 | 0.03 | 0.00 | 93 | 1011.9 |
| 20260903070517 | 22 | 121 | 0.0 | 3.2 | 0.00 | 0.03 | 0.00 | 93 | 1011.9 |
| 20260903070017 | 22 | 121 | 1.6 | 4.8 | 0.00 | 0.03 | 0.00 | 93 | 1012.0 |
| 20260903065516 | 22 | 122 | 1.6 | 4.8 | 0.00 | 0.03 | 0.00 | 93 | 1011.9 |
| 20260903065036 | 22 | 148 | 1.6 | 3.2 | 0.00 | 0.03 | 0.00 | 93 | 1012.0 |
| 20260903064516 | 22 | 0.0 | 0.0 | 0.00 | 0.03 | 0.00 | 93 | 1012.0 | |
| 20260903064016 | 22 | 0.0 | 3.2 | 0.00 | 0.03 | 0.00 | 93 | 1012.0 | |
| 20260903063536 | 22 | 148 | 0.0 | 3.2 | 0.00 | 0.03 | 0.00 | 92 | 1011.9 |
| 20260903063016 | 22 | 148 | 0.0 | 3.2 | 0.00 | 0.03 | 0.00 | 92 | 1011.9 |
| 20260903062538 | 23 | 148 | 1.6 | 3.2 | 0.00 | 0.03 | 0.00 | 92 | 1011.9 |
| 20260903062016 | 23 | 148 | 1.6 | 3.2 | 0.00 | 0.03 | 0.00 | 92 | 1011.9 |
| 20260903061558 | 23 | 148 | 1.6 | 3.2 | 0.00 | 0.03 | 0.00 | 92 | 1011.8 |
| 20260903061016 | 23 | 157 | 0.0 | 3.2 | 0.00 | 0.03 | 0.00 | 92 | 1011.8 |
| 20260903060617 | 23 | 0.0 | 0.0 | 0.00 | 0.03 | 0.00 | 92 | 1011.8 | |
| 20260903060016 | 23 | 0.0 | 0.0 | 0.00 | 0.03 | 0.00 | 92 | 1011.8 | |
| 20260903055516 | 23 | 0.0 | 0.0 | 0.00 | 0.03 | 0.00 | 92 | 1011.9 | |
| 20260903055016 | 23 | 0.0 | 0.0 | 0.00 | 0.03 | 0.00 | 92 | 1011.8 | |
| 20260903054516 | 23 | 0.0 | 0.0 | 0.00 | 0.03 | 0.00 | 92 | 1011.8 | |
| 20260903054016 | 23 | 0.0 | 0.0 | 0.00 | 0.03 | 0.00 | 92 | 1011.7 | |
| 20260903053516 | 23 | 0.0 | 0.0 | 0.00 | 0.03 | 0.00 | 91 | 1011.7 | |
| 20260903053017 | 23 | 0.0 | 0.0 | 0.00 | 0.03 | 0.00 | 91 | 1011.8 | |
| 20260903052516 | 23 | 0.0 | 3.2 | 0.00 | 0.03 | 0.00 | 92 | 1011.7 | |
| 20260903052016 | 23 | 241 | 0.0 | 3.2 | 0.00 | 0.03 | 0.00 | 92 | 1011.7 |
| 20260903051517 | 23 | 241 | 0.0 | 3.2 | 0.00 | 0.03 | 0.00 | 92 | 1011.6 |
| 20260903051016 | 23 | 239 | 0.0 | 3.2 | 0.00 | 0.03 | 0.00 | 92 | 1011.7 |
| 20260903050516 | 23 | 0.0 | 0.0 | 0.00 | 0.03 | 0.00 | 92 | 1011.7 | |
| 20260903050017 | 23 | 0.0 | 1.6 | 0.00 | 0.03 | 0.00 | 92 | 1011.6 | |
| 20260903045516 | 23 | 97 | 0.0 | 3.2 | 0.00 | 0.03 | 0.00 | 92 | 1011.7 |
| 20260903045016 | 23 | 98 | 0.0 | 3.2 | 0.00 | 0.03 | 0.00 | 92 | 1011.7 |
| 20260903044516 | 23 | 0.0 | 0.0 | 0.00 | 0.03 | 0.00 | 91 | 1011.5 | |
| 20260903044016 | 23 | 0.0 | 0.0 | 0.00 | 0.03 | 0.00 | 92 | 1011.5 | |
| 20260903043517 | 23 | 0.0 | 0.0 | 0.00 | 0.03 | 0.00 | 92 | 1011.4 | |
| 20260903043016 | 23 | 0.0 | 0.0 | 0.00 | 0.03 | 0.00 | 92 | 1011.4 | |
| 20260903042516 | 23 | 0.0 | 0.0 | 0.00 | 0.03 | 0.00 | 92 | 1011.4 | |
| 20260903042016 | 23 | 0.0 | 0.0 | 0.00 | 0.03 | 0.00 | 92 | 1011.4 | |
| 20260903041516 | 23 | 0.0 | 0.0 | 0.00 | 0.03 | 0.00 | 92 | 1011.4 | |
| 20260903041016 | 23 | 0.0 | 1.6 | 0.00 | 0.03 | 0.00 | 92 | 1011.4 | |
| 20260903040516 | 23 | 98 | 0.0 | 3.2 | 0.00 | 0.03 | 0.00 | 91 | 1011.4 |
| 20260903040016 | 23 | 98 | 0.0 | 3.2 | 0.00 | 0.03 | 0.03 | 91 | 1011.3 |
| 20260903035517 | 23 | 98 | 0.0 | 1.6 | 0.00 | 0.05 | 0.03 | 91 | 1011.3 |
| 20260903035017 | 24 | 98 | 0.0 | 1.6 | 0.00 | 0.05 | 0.03 | 91 | 1011.3 |
| 20260903034518 | 24 | 0.0 | 0.0 | 0.00 | 0.05 | 0.03 | 91 | 1011.3 | |
| 20260903034016 | 24 | 0.0 | 3.2 | 0.00 | 0.05 | 0.03 | 90 | 1011.3 | |
| 20260903033516 | 24 | 98 | 0.0 | 3.2 | 0.00 | 0.05 | 0.03 | 90 | 1011.1 |
| 20260903033016 | 24 | 0.0 | 1.6 | 0.00 | 0.05 | 0.03 | 90 | 1011.2 | |
| 20260903032517 | 24 | 98 | 0.0 | 3.2 | 0.00 | 0.05 | 0.03 | 90 | 1011.3 |
| 20260903032016 | 24 | 98 | 0.0 | 3.2 | 0.00 | 0.05 | 0.03 | 90 | 1011.2 |
| 20260903031516 | 24 | 0.0 | 3.2 | 0.00 | 0.05 | 0.03 | 89 | 1011.4 | |
| 20260903031016 | 24 | 97 | 0.0 | 3.2 | 0.00 | 0.05 | 0.03 | 89 | 1011.4 |
| 20260903030518 | 25 | 98 | 1.6 | 3.2 | 0.00 | 0.05 | 0.03 | 89 | 1011.3 |
| 20260903030016 | 25 | 98 | 0.0 | 3.2 | 0.00 | 0.05 | 0.03 | 88 | 1011.3 |
| 20260903025516 | 25 | 104 | 0.0 | 3.2 | 0.00 | 0.05 | 0.03 | 88 | 1011.4 |
| 20260903025016 | 25 | 138 | 0.0 | 3.2 | 0.00 | 0.05 | 0.03 | 87 | 1011.5 |
| 20260903024536 | 25 | 143 | 0.0 | 3.2 | 0.00 | 0.05 | 0.03 | 87 | 1011.4 |
| 20260903024017 | 25 | 292 | 1.6 | 3.2 | 0.00 | 0.05 | 0.03 | 87 | 1011.5 |
| 20260903023517 | 25 | 292 | 1.6 | 3.2 | 0.00 | 0.05 | 0.03 | 85 | 1011.4 |
| 20260903023016 | 25 | 292 | 0.0 | 3.2 | 0.00 | 0.05 | 0.03 | 84 | 1011.4 |
| 20260903022516 | 25 | 0.0 | 0.0 | 0.00 | 0.05 | 0.03 | 84 | 1011.4 | |
| 20260903022036 | 26 | 0.0 | 1.6 | 0.00 | 0.05 | 0.03 | 84 | 1011.5 | |
| 20260903021517 | 26 | 292 | 0.0 | 3.2 | 0.00 | 0.05 | 0.03 | 84 | 1011.5 |
| 20260903021016 | 26 | 292 | 0.0 | 3.2 | 0.00 | 0.05 | 0.03 | 84 | 1011.5 |
| 20260903020516 | 26 | 0.0 | 0.0 | 0.00 | 0.05 | 0.03 | 84 | 1011.3 | |
| 20260903020018 | 26 | 0.0 | 1.6 | 0.00 | 0.05 | 0.03 | 83 | 1011.4 | |
| 20260903015516 | 26 | 323 | 0.0 | 3.2 | 0.00 | 0.05 | 0.03 | 83 | 1011.3 |
| 20260903015016 | 26 | 323 | 0.0 | 3.2 | 0.00 | 0.05 | 0.03 | 83 | 1011.3 |
| 20260903014516 | 26 | 322 | 1.6 | 3.2 | 0.00 | 0.05 | 0.03 | 83 | 1011.3 |
| 20260903014017 | 26 | 310 | 0.0 | 3.2 | 0.00 | 0.05 | 0.03 | 83 | 1011.3 |
| 20260903013516 | 26 | 311 | 0.0 | 4.8 | 0.00 | 0.05 | 0.03 | 83 | 1011.3 |
| 20260903013057 | 26 | 325 | 1.6 | 4.8 | 0.00 | 0.05 | 0.03 | 84 | 1011.1 |
| 20260903012517 | 26 | 299 | 1.6 | 6.4 | 0.00 | 0.05 | 0.03 | 84 | 1011.1 |
| 20260903012016 | 26 | 267 | 0.0 | 6.4 | 0.00 | 0.05 | 0.03 | 84 | 1011.0 |
| 20260903011516 | 26 | 0.0 | 0.0 | 0.00 | 0.05 | 0.03 | 84 | 1010.9 | |
| 20260903011018 | 26 | 0.0 | 0.0 | 0.00 | 0.05 | 0.03 | 84 | 1010.9 | |
| 20260903010516 | 26 | 0.0 | 0.0 | 0.00 | 0.05 | 0.03 | 83 | 1010.9 | |
| 20260903010016 | 27 | 0.0 | 0.0 | 0.00 | 0.08 | 0.03 | 82 | 1010.8 | |
| 20260903005536 | 27 | 0.0 | 0.0 | 0.00 | 0.08 | 0.03 | 82 | 1010.8 | |
| 20260903005037 | 27 | 0.0 | 0.0 | 0.00 | 0.08 | 0.03 | 82 | 1010.8 | |
| 20260903004516 | 27 | 0.0 | 0.0 | 0.00 | 0.08 | 0.03 | 82 | 1010.6 | |
| 20260903004016 | 27 | 0.0 | 0.0 | 0.00 | 0.08 | 0.03 | 81 | 1010.5 | |
| 20260903003518 | 27 | 0.0 | 0.0 | 0.00 | 0.08 | 0.03 | 80 | 1010.5 | |
| 20260903003016 | 28 | 0.0 | 0.0 | 0.00 | 0.08 | 0.03 | 80 | 1010.5 | |
| 20260903002538 | 28 | 0.0 | 0.0 | 0.00 | 0.08 | 0.03 | 79 | 1010.4 | |
| 20260903002016 | 28 | 0.0 | 0.0 | 0.00 | 0.08 | 0.03 | 79 | 1010.4 | |
| 20260903001516 | 28 | 0.0 | 0.0 | 0.00 | 0.08 | 0.03 | 78 | 1010.4 | |
| 20260903001016 | 28 | 0.0 | 0.0 | 0.00 | 0.08 | 0.03 | 77 | 1010.5 | |
| 20260903000516 | 28 | 0.0 | 0.0 | 0.00 | 0.08 | 0.03 | 77 | 1010.5 | |
| 20260903000016 | 29 | 0.0 | 0.0 | 0.00 | 0.10 | 0.03 | 76 | 1010.5 | |
| 20260902235517 | 29 | 0.0 | 0.0 | 0.00 | 0.10 | 0.03 | 76 | 1010.7 | |
| 20260902235016 | 29 | 0.0 | 0.0 | 0.00 | 0.10 | 0.03 | 76 | 1010.6 | |
| 20260902234516 | 30 | 0.0 | 0.0 | 0.00 | 0.10 | 0.03 | 75 | 1010.5 | |
| 20260902234016 | 30 | 0.0 | 0.0 | 0.00 | 0.10 | 0.03 | 74 | 1010.5 | |
| 20260902233517 | 30 | 0.0 | 0.0 | 0.00 | 0.10 | 0.03 | 74 | 1010.6 | |
| 20260902233016 | 30 | 0.0 | 0.0 | 0.00 | 0.10 | 0.03 | 73 | 1010.5 | |
| 20260902232516 | 30 | 0.0 | 0.0 | 0.00 | 0.10 | 0.03 | 73 | 1010.5 | |
| 20260902232016 | 30 | 0.0 | 0.0 | 0.00 | 0.10 | 0.03 | 72 | 1010.5 | |
| 20260902231516 | 30 | 0.0 | 0.0 | 0.00 | 0.13 | 0.03 | 70 | 1010.4 | |
| 20260902231016 | 30 | 0.0 | 1.6 | 0.00 | 0.13 | 0.03 | 71 | 1010.5 | |
| 20260902230517 | 30 | 269 | 0.0 | 1.6 | 0.00 | 0.13 | 0.03 | 72 | 1010.6 |
| 20260902230016 | 30 | 0.0 | 1.6 | 0.00 | 0.13 | 0.03 | 71 | 1010.6 | |
| 20260902225536 | 30 | 269 | 0.0 | 3.2 | 0.00 | 0.13 | 0.03 | 70 | 1010.6 |
| 20260902225016 | 30 | 269 | 0.0 | 3.2 | 0.00 | 0.13 | 0.03 | 70 | 1010.6 |
| 20260902224517 | 30 | 268 | 0.0 | 4.8 | 0.00 | 0.13 | 0.03 | 67 | 1010.6 |
| 20260902224017 | 30 | 263 | 1.6 | 4.8 | 0.00 | 0.13 | 0.03 | 68 | 1010.7 |
| 20260902223516 | 30 | 258 | 1.6 | 6.4 | 0.00 | 0.13 | 0.03 | 67 | 1010.7 |
| 20260902223016 | 30 | 263 | 1.6 | 6.4 | 0.00 | 0.13 | 0.03 | 66 | 1010.8 |